Time,TemperatureF,DewpointF,PressureIn,WindDirection,WindDirectionDegrees,WindSpeedMPH,WindSpeedGustMPH,Humidity,HourlyPrecipIn,Conditions,Clouds,dailyrainin,SoftwareType,DateUTC
2013-03-13 00:00:00,51.0,41.9,30.04,South,186,3.0,6.0,71,0.00,,,0.00,Wunderground v.1.15,2013-03-13 07:00:00,
2013-03-13 00:03:00,51.2,42.1,30.04,SW,219,7.0,7.0,71,0.00,,,0.00,Wunderground v.1.15,2013-03-13 07:03:00,
2013-03-13 00:08:00,51.9,42.4,30.04,SW,232,3.0,7.0,70,0.00,,,0.00,Wunderground v.1.15,2013-03-13 07:08:00,
2013-03-13 00:10:00,52.0,42.1,30.04,WSW,239,8.0,8.0,69,0.00,,,0.00,Wunderground v.1.15,2013-03-13 07:10:00,
2013-03-13 00:12:00,52.1,42.2,30.04,WSW,245,4.0,8.0,69,0.00,,,0.00,Wunderground v.1.15,2013-03-13 07:12:00,
2013-03-13 00:14:00,52.1,42.2,30.04,WSW,246,4.0,6.0,69,0.00,,,0.00,Wunderground v.1.15,2013-03-13 07:14:00,
2013-03-13 00:16:00,52.0,42.1,30.04,WSW,247,5.0,6.0,69,0.00,,,0.00,Wunderground v.1.15,2013-03-13 07:16:00,
2013-03-13 00:20:00,51.9,42.0,30.04,WSW,247,3.0,6.0,69,0.00,,,0.00,Wunderground v.1.15,2013-03-13 07:20:00,
2013-03-13 00:22:00,51.9,42.0,30.04,WSW,247,1.0,6.0,69,0.00,,,0.00,Wunderground v.1.15,2013-03-13 07:22:00,
2013-03-13 00:24:00,51.9,42.0,30.04,WSW,247,0.0,4.0,69,0.00,,,0.00,Wunderground v.1.15,2013-03-13 07:24:00,
2013-03-13 00:30:00,51.7,41.9,30.04,WSW,247,2.0,4.0,69,0.00,,,0.00,Wunderground v.1.15,2013-03-13 07:30:00,
2013-03-13 00:33:00,50.9,41.1,30.04,NW,323,6.0,6.0,69,0.00,,,0.00,Wunderground v.1.15,2013-03-13 07:33:00,
2013-03-13 00:34:00,50.7,41.6,30.04,North,350,4.0,6.0,71,0.00,,,0.00,Wunderground v.1.15,2013-03-13 07:34:00,
2013-03-13 00:39:00,49.8,41.1,30.05,North,355,3.0,6.0,72,0.00,,,0.00,Wunderground v.1.15,2013-03-13 07:39:00,
2013-03-13 00:40:00,49.8,41.5,30.04,North,355,3.0,6.0,73,0.00,,,0.00,Wunderground v.1.15,2013-03-13 07:40:00,
2013-03-13 00:43:00,49.8,41.8,30.04,North,355,1.0,4.0,74,0.00,,,0.00,Wunderground v.1.15,2013-03-13 07:43:00,
2013-03-13 00:44:00,49.9,41.9,30.04,North,355,2.0,4.0,74,0.00,,,0.00,Wunderground v.1.15,2013-03-13 07:44:00,
2013-03-13 00:51:00,50.6,41.9,30.04,North,355,0.0,4.0,72,0.00,,,0.00,Wunderground v.1.15,2013-03-13 07:51:00,
2013-03-13 00:53:00,50.8,42.1,30.04,North,355,0.0,0.0,72,0.00,,,0.00,Wunderground v.1.15,2013-03-13 07:53:00,
2013-03-13 00:54:00,50.8,41.7,30.04,North,355,0.0,0.0,71,0.00,,,0.00,Wunderground v.1.15,2013-03-13 07:54:00,
2013-03-13 00:55:00,50.7,41.6,30.04,North,355,1.0,1.0,71,0.00,,,0.00,Wunderground v.1.15,2013-03-13 07:55:00,
2013-03-13 00:58:00,50.3,41.6,30.04,North,355,2.0,3.0,72,0.00,,,0.00,Wunderground v.1.15,2013-03-13 07:58:00,
2013-03-13 01:01:00,50.3,41.6,30.04,North,355,2.0,3.0,72,0.00,,,0.00,Wunderground v.1.15,2013-03-13 08:01:00,
2013-03-13 01:02:00,50.3,41.6,30.04,North,355,2.0,3.0,72,0.00,,,0.00,Wunderground v.1.15,2013-03-13 08:02:00,
2013-03-13 01:07:00,50.8,42.1,30.04,North,355,0.0,2.0,72,0.00,,,0.00,Wunderground v.1.15,2013-03-13 08:07:00,
2013-03-13 01:09:00,50.8,41.7,30.04,North,355,1.0,2.0,71,0.00,,,0.00,Wunderground v.1.15,2013-03-13 08:09:00,
2013-03-13 01:13:00,50.1,41.4,30.04,North,355,2.0,2.0,72,0.00,,,0.00,Wunderground v.1.15,2013-03-13 08:13:00,
2013-03-13 01:15:00,49.8,41.5,30.04,North,355,2.0,2.0,73,0.00,,,0.00,Wunderground v.1.15,2013-03-13 08:15:00,
2013-03-13 01:17:00,49.5,41.2,30.03,North,355,3.0,3.0,73,0.00,,,0.00,Wunderground v.1.15,2013-03-13 08:17:00,
2013-03-13 01:18:00,49.4,41.5,30.03,North,355,3.0,3.0,74,0.00,,,0.00,Wunderground v.1.15,2013-03-13 08:18:00,
2013-03-13 01:19:00,49.3,41.4,30.03,North,355,3.0,3.0,74,0.00,,,0.00,Wunderground v.1.15,2013-03-13 08:19:00,
2013-03-13 01:23:00,48.8,41.2,30.03,North,355,2.0,2.0,75,0.00,,,0.00,Wunderground v.1.15,2013-03-13 08:23:00,
2013-03-13 01:25:00,48.4,40.8,30.03,North,355,3.0,3.0,75,0.00,,,0.00,Wunderground v.1.15,2013-03-13 08:25:00,
2013-03-13 01:27:00,48.1,40.9,30.03,North,355,1.0,3.0,76,0.00,,,0.00,Wunderground v.1.15,2013-03-13 08:27:00,
2013-03-13 01:32:00,48.0,41.1,30.04,North,355,2.0,4.0,77,0.00,,,0.00,Wunderground v.1.15,2013-03-13 08:32:00,
2013-03-13 01:35:00,48.0,41.1,30.04,North,355,3.0,3.0,77,0.00,,,0.00,Wunderground v.1.15,2013-03-13 08:35:00,
2013-03-13 01:37:00,48.0,41.1,30.04,North,355,3.0,3.0,77,0.00,,,0.00,Wunderground v.1.15,2013-03-13 08:37:00,
2013-03-13 01:40:00,48.1,41.2,30.03,North,355,3.0,3.0,77,0.00,,,0.00,Wunderground v.1.15,2013-03-13 08:40:00,
2013-03-13 01:41:00,48.2,41.3,30.03,North,355,3.0,3.0,77,0.00,,,0.00,Wunderground v.1.15,2013-03-13 08:41:00,
2013-03-13 01:42:00,48.3,41.4,30.03,North,355,2.0,3.0,77,0.00,,,0.00,Wunderground v.1.15,2013-03-13 08:42:00,
2013-03-13 01:46:00,49.0,41.8,30.04,North,355,1.0,3.0,76,0.00,,,0.00,Wunderground v.1.15,2013-03-13 08:46:00,
2013-03-13 01:49:00,49.2,41.6,30.04,North,355,0.0,3.0,75,0.00,,,0.00,Wunderground v.1.15,2013-03-13 08:49:00,
2013-03-13 01:50:00,49.2,41.6,30.03,North,355,1.0,3.0,75,0.00,,,0.00,Wunderground v.1.15,2013-03-13 08:50:00,
2013-03-13 01:52:00,49.1,41.5,30.03,North,355,1.0,3.0,75,0.00,,,0.00,Wunderground v.1.15,2013-03-13 08:52:00,
2013-03-13 01:56:00,48.7,41.5,30.03,North,355,2.0,3.0,76,0.00,,,0.00,Wunderground v.1.15,2013-03-13 08:56:00,
2013-03-13 01:57:00,48.9,41.7,30.03,North,355,2.0,3.0,76,0.00,,,0.00,Wunderground v.1.15,2013-03-13 08:57:00,
2013-03-13 02:02:00,48.8,41.2,30.03,North,355,2.0,3.0,75,0.00,,,0.00,Wunderground v.1.15,2013-03-13 09:02:00,
2013-03-13 02:06:00,48.4,41.2,30.03,North,355,2.0,4.0,76,0.00,,,0.00,Wunderground v.1.15,2013-03-13 09:06:00,
2013-03-13 02:11:00,49.0,41.4,30.03,North,355,1.0,4.0,75,0.00,,,0.00,Wunderground v.1.15,2013-03-13 09:11:00,
2013-03-13 02:16:00,48.0,40.8,30.03,SE,125,4.0,12.0,76,0.00,,,0.00,Wunderground v.1.15,2013-03-13 09:16:00,
2013-03-13 02:21:00,47.6,41.1,30.03,SE,125,0.0,12.0,78,0.00,,,0.00,Wunderground v.1.15,2013-03-13 09:21:00,
2013-03-13 02:26:00,47.7,41.2,30.03,SE,125,0.0,3.0,78,0.00,,,0.00,Wunderground v.1.15,2013-03-13 09:26:00,
2013-03-13 02:30:00,47.9,41.4,30.03,SE,125,2.0,4.0,78,0.00,,,0.00,Wunderground v.1.15,2013-03-13 09:30:00,
2013-03-13 02:31:00,47.9,41.4,30.03,SE,125,4.0,4.0,78,0.00,,,0.00,Wunderground v.1.15,2013-03-13 09:31:00,
2013-03-13 02:36:00,47.9,41.4,30.02,SE,126,2.0,7.0,78,0.00,,,0.00,Wunderground v.1.15,2013-03-13 09:36:00,
2013-03-13 02:41:00,48.8,41.9,30.03,SSW,209,3.0,7.0,77,0.00,,,0.00,Wunderground v.1.15,2013-03-13 09:41:00,
2013-03-13 02:46:00,49.4,41.1,30.03,SW,233,3.0,6.0,73,0.00,,,0.00,Wunderground v.1.15,2013-03-13 09:46:00,
2013-03-13 02:51:00,48.5,41.3,30.04,West,265,1.0,6.0,76,0.00,,,0.00,Wunderground v.1.15,2013-03-13 09:51:00,
2013-03-13 02:56:00,48.7,41.5,30.03,West,267,2.0,3.0,76,0.00,,,0.00,Wunderground v.1.15,2013-03-13 09:56:00,
2013-03-13 03:01:00,48.8,41.2,30.04,West,267,2.0,3.0,75,0.00,,,0.00,Wunderground v.1.15,2013-03-13 10:01:00,
2013-03-13 03:06:00,48.7,40.8,30.04,West,267,4.0,4.0,74,0.00,,,0.00,Wunderground v.1.15,2013-03-13 10:06:00,
2013-03-13 03:11:00,48.3,41.4,30.04,NNW,342,1.0,7.0,77,0.00,,,0.00,Wunderground v.1.15,2013-03-13 10:11:00,
2013-03-13 03:16:00,49.4,41.8,30.04,NNW,332,2.0,4.0,75,0.00,,,0.00,Wunderground v.1.15,2013-03-13 10:16:00,
2013-03-13 03:21:00,49.8,41.5,30.04,NNW,332,4.0,4.0,73,0.00,,,0.00,Wunderground v.1.15,2013-03-13 10:21:00,
2013-03-13 03:26:00,49.4,41.5,30.05,NNW,333,1.0,3.0,74,0.00,,,0.00,Wunderground v.1.15,2013-03-13 10:26:00,
2013-03-13 03:31:00,49.4,41.5,30.05,NNW,333,0.0,3.0,74,0.00,,,0.00,Wunderground v.1.15,2013-03-13 10:31:00,
2013-03-13 03:36:00,49.7,41.7,30.05,NNW,333,0.0,1.0,74,0.00,,,0.00,Wunderground v.1.15,2013-03-13 10:36:00,
2013-03-13 03:41:00,49.9,41.6,30.04,NNW,333,0.0,1.0,73,0.00,,,0.00,Wunderground v.1.15,2013-03-13 10:41:00,
2013-03-13 03:46:00,49.8,41.5,30.05,NNW,333,0.0,2.0,73,0.00,,,0.00,Wunderground v.1.15,2013-03-13 10:46:00,
2013-03-13 03:51:00,49.2,41.6,30.05,NNW,333,0.0,3.0,75,0.00,,,0.00,Wunderground v.1.15,2013-03-13 10:51:00,
2013-03-13 03:56:00,49.3,41.7,30.05,NNW,333,0.0,1.0,75,0.00,,,0.00,Wunderground v.1.15,2013-03-13 10:56:00,
2013-03-13 04:01:00,49.0,41.4,30.04,NNW,333,1.0,2.0,75,0.00,,,0.00,Wunderground v.1.15,2013-03-13 11:01:00,
2013-03-13 04:06:00,48.4,40.8,30.04,North,355,1.0,5.0,75,0.00,,,0.00,Wunderground v.1.15,2013-03-13 11:06:00,
2013-03-13 04:07:00,48.4,41.2,30.04,North,355,0.0,5.0,76,0.00,,,0.00,Wunderground v.1.15,2013-03-13 11:07:00,
2013-03-13 04:11:00,48.5,41.3,30.05,North,355,0.0,5.0,76,0.00,,,0.00,Wunderground v.1.15,2013-03-13 11:11:00,
2013-03-13 04:16:00,48.6,41.0,30.05,North,355,0.0,1.0,75,0.00,,,0.00,Wunderground v.1.15,2013-03-13 11:16:00,
2013-03-13 04:21:00,47.9,41.0,30.05,North,355,1.0,3.0,77,0.00,,,0.00,Wunderground v.1.15,2013-03-13 11:21:00,
2013-03-13 04:26:00,48.3,41.1,30.05,North,355,2.0,2.0,76,0.00,,,0.00,Wunderground v.1.15,2013-03-13 11:26:00,
2013-03-13 04:31:00,48.1,41.2,30.05,North,355,0.0,2.0,77,0.00,,,0.00,Wunderground v.1.15,2013-03-13 11:31:00,
2013-03-13 04:36:00,48.2,41.3,30.05,North,355,0.0,1.0,77,0.00,,,0.00,Wunderground v.1.15,2013-03-13 11:36:00,
2013-03-13 04:41:00,47.7,40.8,30.05,North,355,1.0,2.0,77,0.00,,,0.00,Wunderground v.1.15,2013-03-13 11:41:00,
2013-03-13 04:46:00,48.3,41.4,30.05,North,355,2.0,3.0,77,0.00,,,0.00,Wunderground v.1.15,2013-03-13 11:46:00,
2013-03-13 04:51:00,47.7,40.8,30.05,North,355,3.0,5.0,77,0.00,,,0.00,Wunderground v.1.15,2013-03-13 11:51:00,
2013-03-13 04:56:00,47.9,41.0,30.05,North,355,2.0,3.0,77,0.00,,,0.00,Wunderground v.1.15,2013-03-13 11:56:00,
2013-03-13 05:01:00,47.9,41.0,30.06,North,355,2.0,4.0,77,0.00,,,0.00,Wunderground v.1.15,2013-03-13 12:01:00,
2013-03-13 05:06:00,48.0,41.1,30.06,North,355,4.0,5.0,77,0.00,,,0.00,Wunderground v.1.15,2013-03-13 12:06:00,
2013-03-13 05:11:00,47.4,40.9,30.06,North,355,6.0,7.0,78,0.00,,,0.00,Wunderground v.1.15,2013-03-13 12:11:00,
2013-03-13 05:16:00,47.8,41.3,30.06,North,355,3.0,6.0,78,0.00,,,0.00,Wunderground v.1.15,2013-03-13 12:16:00,
2013-03-13 05:21:00,49.0,41.4,30.06,North,355,5.0,6.0,75,0.00,,,0.00,Wunderground v.1.15,2013-03-13 12:21:00,
2013-03-13 05:26:00,48.9,41.0,30.05,North,355,4.0,5.0,74,0.00,,,0.00,Wunderground v.1.15,2013-03-13 12:26:00,
2013-03-13 05:31:00,48.7,41.1,30.06,North,355,1.0,5.0,75,0.00,,,0.00,Wunderground v.1.15,2013-03-13 12:31:00,
2013-03-13 05:36:00,48.5,40.9,30.06,North,355,4.0,6.0,75,0.00,,,0.00,Wunderground v.1.15,2013-03-13 12:36:00,
2013-03-13 05:41:00,49.0,41.1,30.06,North,355,2.0,6.0,74,0.00,,,0.00,Wunderground v.1.15,2013-03-13 12:41:00,
2013-03-13 05:46:00,48.8,40.9,30.06,North,355,2.0,4.0,74,0.00,,,0.00,Wunderground v.1.15,2013-03-13 12:46:00,
2013-03-13 05:47:00,48.7,40.8,30.06,North,355,3.0,4.0,74,0.00,,,0.00,Wunderground v.1.15,2013-03-13 12:47:00,
2013-03-13 05:52:00,48.1,40.5,30.06,North,355,3.0,4.0,75,0.00,,,0.00,Wunderground v.1.15,2013-03-13 12:52:00,
2013-03-13 05:56:00,47.7,40.5,30.06,North,355,0.0,4.0,76,0.00,,,0.00,Wunderground v.1.15,2013-03-13 12:56:00,
2013-03-13 06:01:00,47.0,39.8,30.06,North,355,1.0,5.0,76,0.00,,,0.00,Wunderground v.1.15,2013-03-13 13:01:00,
2013-03-13 06:03:00,46.7,39.9,30.06,North,355,0.0,2.0,77,0.00,,,0.00,Wunderground v.1.15,2013-03-13 13:03:00,
2013-03-13 06:06:00,46.3,39.8,30.06,North,355,0.0,2.0,78,0.00,,,0.00,Wunderground v.1.15,2013-03-13 13:06:00,
2013-03-13 06:11:00,46.6,40.4,30.06,North,355,0.0,2.0,79,0.00,,,0.00,Wunderground v.1.15,2013-03-13 13:11:00,
2013-03-13 06:16:00,47.4,40.6,30.06,North,355,0.0,2.0,77,0.00,,,0.00,Wunderground v.1.15,2013-03-13 13:16:00,
2013-03-13 06:21:00,47.2,40.4,30.06,NW,307,5.0,8.0,77,0.00,,,0.00,Wunderground v.1.15,2013-03-13 13:21:00,
2013-03-13 06:26:00,47.2,40.0,30.06,NW,307,2.0,4.0,76,0.00,,,0.00,Wunderground v.1.15,2013-03-13 13:26:00,
2013-03-13 06:31:00,46.7,39.5,30.07,NW,307,0.0,4.0,76,0.00,,,0.00,Wunderground v.1.15,2013-03-13 13:31:00,
2013-03-13 06:36:00,46.5,39.7,30.07,NW,307,0.0,2.0,77,0.00,,,0.00,Wunderground v.1.15,2013-03-13 13:36:00,
2013-03-13 06:41:00,46.3,39.5,30.07,NW,307,3.0,3.0,77,0.00,,,0.00,Wunderground v.1.15,2013-03-13 13:41:00,
2013-03-13 06:46:00,46.2,39.7,30.07,NW,307,4.0,5.0,78,0.00,,,0.00,Wunderground v.1.15,2013-03-13 13:46:00,
2013-03-13 06:51:00,46.5,39.7,30.07,NW,307,3.0,5.0,77,0.00,,,0.00,Wunderground v.1.15,2013-03-13 13:51:00,
2013-03-13 06:56:00,46.4,39.6,30.07,NW,307,4.0,4.0,77,0.00,,,0.00,Wunderground v.1.15,2013-03-13 13:56:00,
2013-03-13 07:01:00,46.1,39.9,30.07,NW,307,3.0,5.0,79,0.00,,,0.00,Wunderground v.1.15,2013-03-13 14:01:00,
2013-03-13 07:06:00,45.9,39.8,30.07,NW,307,2.0,3.0,79,0.00,,,0.00,Wunderground v.1.15,2013-03-13 14:06:00,
2013-03-13 07:11:00,45.4,39.3,30.07,NW,309,6.0,6.0,79,0.00,,,0.00,Wunderground v.1.15,2013-03-13 14:11:00,
2013-03-13 07:16:00,45.4,39.6,30.07,NNW,336,4.0,7.0,80,0.00,,,0.00,Wunderground v.1.15,2013-03-13 14:16:00,
2013-03-13 07:21:00,45.7,39.6,30.06,NNW,344,7.0,7.0,79,0.00,,,0.00,Wunderground v.1.15,2013-03-13 14:21:00,
2013-03-13 07:26:00,45.8,39.3,30.07,NNW,344,7.0,7.0,78,0.00,,,0.00,Wunderground v.1.15,2013-03-13 14:26:00,
2013-03-13 07:31:00,45.4,38.9,30.07,NNW,344,4.0,7.0,78,0.00,,,0.00,Wunderground v.1.15,2013-03-13 14:31:00,
2013-03-13 07:36:00,45.1,39.0,30.07,NNW,344,3.0,5.0,79,0.00,,,0.00,Wunderground v.1.15,2013-03-13 14:36:00,
2013-03-13 07:41:00,44.7,38.6,30.08,NNW,344,2.0,5.0,79,0.00,,,0.00,Wunderground v.1.15,2013-03-13 14:41:00,
2013-03-13 07:46:00,44.4,38.3,30.08,NNW,344,0.0,3.0,79,0.00,,,0.00,Wunderground v.1.15,2013-03-13 14:46:00,
2013-03-13 07:51:00,44.3,38.8,30.08,NNW,340,2.0,3.0,81,0.00,,,0.00,Wunderground v.1.15,2013-03-13 14:51:00,
2013-03-13 07:56:00,44.5,39.0,30.07,NNW,340,2.0,3.0,81,0.00,,,0.00,Wunderground v.1.15,2013-03-13 14:56:00,
2013-03-13 08:01:00,44.3,38.5,30.07,NNW,340,6.0,6.0,80,0.00,,,0.00,Wunderground v.1.15,2013-03-13 15:01:00,
2013-03-13 08:06:00,43.9,38.4,30.08,NNW,343,3.0,5.0,81,0.00,,,0.00,Wunderground v.1.15,2013-03-13 15:06:00,
2013-03-13 08:11:00,44.1,39.0,30.08,NNW,343,3.0,5.0,82,0.00,,,0.00,Wunderground v.1.15,2013-03-13 15:11:00,
2013-03-13 08:16:00,45.2,39.7,30.08,NNW,341,3.0,3.0,81,0.00,,,0.00,Wunderground v.1.15,2013-03-13 15:16:00,
2013-03-13 08:21:00,47.0,40.5,30.08,NNW,343,1.0,4.0,78,0.00,,,0.00,Wunderground v.1.15,2013-03-13 15:21:00,
2013-03-13 08:26:00,47.8,40.3,30.09,NNW,348,0.0,2.0,75,0.00,,,0.00,Wunderground v.1.15,2013-03-13 15:26:00,
2013-03-13 08:31:00,48.1,40.2,30.08,NNW,338,1.0,2.0,74,0.00,,,0.00,Wunderground v.1.15,2013-03-13 15:31:00,
2013-03-13 08:36:00,47.6,39.7,30.09,NNW,338,3.0,3.0,74,0.00,,,0.00,Wunderground v.1.15,2013-03-13 15:36:00,
2013-03-13 08:41:00,47.7,39.8,30.09,NNW,339,4.0,4.0,74,0.00,,,0.00,Wunderground v.1.15,2013-03-13 15:41:00,
2013-03-13 08:46:00,46.3,39.1,30.09,NNW,332,4.0,5.0,76,0.00,,,0.00,Wunderground v.1.15,2013-03-13 15:46:00,
2013-03-13 08:51:00,45.5,39.4,30.09,NNW,331,4.0,5.0,79,0.00,,,0.00,Wunderground v.1.15,2013-03-13 15:51:00,
2013-03-13 08:56:00,46.0,40.2,30.09,NNW,331,2.0,3.0,80,0.00,,,0.00,Wunderground v.1.15,2013-03-13 15:56:00,
2013-03-13 08:57:00,46.0,40.2,30.09,NNW,331,1.0,3.0,80,0.00,,,0.00,Wunderground v.1.15,2013-03-13 15:57:00,
2013-03-13 09:01:00,46.3,40.8,30.09,NNW,333,6.0,7.0,81,0.00,,,0.00,Wunderground v.1.15,2013-03-13 16:01:00,
2013-03-13 09:06:00,47.7,41.5,30.09,NNW,333,5.0,8.0,79,0.00,,,0.00,Wunderground v.1.15,2013-03-13 16:06:00,
2013-03-13 09:11:00,48.6,41.7,30.09,NW,325,2.0,8.0,77,0.00,,,0.00,Wunderground v.1.15,2013-03-13 16:11:00,
2013-03-13 09:16:00,49.3,41.7,30.09,NW,310,2.0,4.0,75,0.00,,,0.00,Wunderground v.1.15,2013-03-13 16:16:00,
2013-03-13 09:21:00,49.9,41.9,30.09,NW,313,3.0,4.0,74,0.00,,,0.00,Wunderground v.1.15,2013-03-13 16:21:00,
2013-03-13 09:26:00,50.6,41.2,30.09,West,281,2.0,4.0,70,0.00,,,0.00,Wunderground v.1.15,2013-03-13 16:26:00,
2013-03-13 09:31:00,51.1,40.9,30.09,West,270,1.0,4.0,68,0.00,,,0.00,Wunderground v.1.15,2013-03-13 16:31:00,
2013-03-13 09:36:00,51.4,41.2,30.09,WSW,241,2.0,3.0,68,0.00,,,0.00,Wunderground v.1.15,2013-03-13 16:36:00,
2013-03-13 09:41:00,51.6,41.8,30.10,WSW,238,3.0,4.0,69,0.00,,,0.00,Wunderground v.1.15,2013-03-13 16:41:00,
2013-03-13 09:46:00,51.6,41.8,30.10,SW,234,5.0,5.0,69,0.00,,,0.00,Wunderground v.1.15,2013-03-13 16:46:00,
2013-03-13 09:51:00,51.6,42.1,30.11,SW,224,2.0,5.0,70,0.00,,,0.00,Wunderground v.1.15,2013-03-13 16:51:00,
2013-03-13 09:56:00,51.6,42.9,30.11,SW,231,4.0,6.0,72,0.00,,,0.00,Wunderground v.1.15,2013-03-13 16:56:00,
2013-03-13 10:00:00,51.2,43.2,30.11,SW,233,4.0,6.0,74,0.00,,,0.00,Wunderground v.1.15,2013-03-13 17:00:00,
2013-03-13 10:05:00,50.9,42.6,30.11,SW,233,4.0,5.0,73,0.00,,,0.00,Wunderground v.1.15,2013-03-13 17:05:00,
2013-03-13 10:10:00,50.6,41.9,30.11,WSW,242,4.0,5.0,72,0.00,,,0.00,Wunderground v.1.15,2013-03-13 17:10:00,
2013-03-13 10:11:00,50.6,41.9,30.11,WSW,258,5.0,6.0,72,0.00,,,0.00,Wunderground v.1.15,2013-03-13 17:11:00,
2013-03-13 10:16:00,50.4,41.7,30.11,West,260,3.0,6.0,72,0.00,,,0.00,Wunderground v.1.15,2013-03-13 17:16:00,
2013-03-13 10:21:00,50.5,42.2,30.11,West,260,6.0,6.0,73,0.00,,,0.00,Wunderground v.1.15,2013-03-13 17:21:00,
2013-03-13 10:26:00,50.6,41.5,30.11,West,278,7.0,8.0,71,0.00,,,0.00,Wunderground v.1.15,2013-03-13 17:26:00,
2013-03-13 10:31:00,50.7,41.6,30.11,WNW,287,6.0,9.0,71,0.00,,,0.00,Wunderground v.1.15,2013-03-13 17:31:00,
2013-03-13 10:36:00,51.1,41.7,30.11,WNW,290,7.0,8.0,70,0.00,,,0.00,Wunderground v.1.15,2013-03-13 17:36:00,
2013-03-13 10:41:00,51.3,41.5,30.11,WNW,289,9.0,9.0,69,0.00,,,0.00,Wunderground v.1.15,2013-03-13 17:41:00,
2013-03-13 10:46:00,51.4,41.6,30.11,WNW,288,8.0,9.0,69,0.00,,,0.00,Wunderground v.1.15,2013-03-13 17:46:00,
2013-03-13 10:51:00,51.8,41.9,30.12,WNW,285,4.0,9.0,69,0.00,,,0.00,Wunderground v.1.15,2013-03-13 17:51:00,
2013-03-13 10:56:00,52.3,42.0,30.11,West,273,6.0,6.0,68,0.00,,,0.00,Wunderground v.1.15,2013-03-13 17:56:00,
2013-03-13 11:01:00,52.7,41.7,30.11,West,269,3.0,6.0,66,0.00,,,0.00,Wunderground v.1.15,2013-03-13 18:01:00,
2013-03-13 11:06:00,53.1,41.6,30.11,WSW,245,4.0,5.0,65,0.00,,,0.00,Wunderground v.1.15,2013-03-13 18:06:00,
2013-03-13 11:11:00,53.2,41.7,30.11,WSW,250,5.0,5.0,65,0.00,,,0.00,Wunderground v.1.15,2013-03-13 18:11:00,
2013-03-13 11:16:00,53.4,41.9,30.11,WSW,252,3.0,5.0,65,0.00,,,0.00,Wunderground v.1.15,2013-03-13 18:16:00,
2013-03-13 11:21:00,53.7,41.8,30.11,WSW,252,3.0,5.0,64,0.00,,,0.00,Wunderground v.1.15,2013-03-13 18:21:00,
2013-03-13 11:26:00,54.0,41.7,30.11,WSW,252,5.0,5.0,63,0.00,,,0.00,Wunderground v.1.15,2013-03-13 18:26:00,
2013-03-13 11:31:00,54.0,41.7,30.12,WSW,256,3.0,6.0,63,0.00,,,0.00,Wunderground v.1.15,2013-03-13 18:31:00,
2013-03-13 11:36:00,54.3,41.6,30.12,WSW,252,3.0,5.0,62,0.00,,,0.00,Wunderground v.1.15,2013-03-13 18:36:00,
2013-03-13 11:41:00,54.4,41.6,30.12,West,266,0.0,5.0,62,0.00,,,0.00,Wunderground v.1.15,2013-03-13 18:41:00,
2013-03-13 11:46:00,54.7,41.9,30.11,West,259,1.0,3.0,62,0.00,,,0.00,Wunderground v.1.15,2013-03-13 18:46:00,
2013-03-13 11:51:00,54.9,42.1,30.11,SW,229,3.0,5.0,62,0.00,,,0.00,Wunderground v.1.15,2013-03-13 18:51:00,
2013-03-13 11:56:00,55.1,41.9,30.12,SW,223,2.0,4.0,61,0.00,,,0.00,Wunderground v.1.15,2013-03-13 18:56:00,
2013-03-13 12:01:00,55.3,42.5,30.11,SW,231,1.0,4.0,62,0.00,,,0.00,Wunderground v.1.15,2013-03-13 19:01:00,
2013-03-13 12:06:00,55.6,42.8,30.11,SW,232,4.0,4.0,62,0.00,,,0.00,Wunderground v.1.15,2013-03-13 19:06:00,
2013-03-13 12:11:00,55.7,42.9,30.11,SW,215,4.0,6.0,62,0.00,,,0.00,Wunderground v.1.15,2013-03-13 19:11:00,
2013-03-13 12:16:00,55.7,42.9,30.11,SW,222,3.0,4.0,62,0.00,,,0.00,Wunderground v.1.15,2013-03-13 19:16:00,
2013-03-13 12:21:00,55.5,42.7,30.11,WSW,240,3.0,7.0,62,0.00,,,0.00,Wunderground v.1.15,2013-03-13 19:21:00,
2013-03-13 12:26:00,55.5,42.7,30.11,West,261,5.0,6.0,62,0.00,,,0.00,Wunderground v.1.15,2013-03-13 19:26:00,
2013-03-13 12:31:00,55.6,42.8,30.11,SW,236,2.0,6.0,62,0.00,,,0.00,Wunderground v.1.15,2013-03-13 19:31:00,
2013-03-13 12:36:00,55.9,42.2,30.12,WSW,254,5.0,5.0,60,0.00,,,0.00,Wunderground v.1.15,2013-03-13 19:36:00,
2013-03-13 12:41:00,55.9,41.8,30.12,WSW,250,4.0,6.0,59,0.00,,,0.00,Wunderground v.1.15,2013-03-13 19:41:00,
2013-03-13 12:46:00,55.9,41.3,30.12,SW,224,3.0,6.0,58,0.00,,,0.00,Wunderground v.1.15,2013-03-13 19:46:00,
2013-03-13 12:51:00,56.0,41.4,30.11,SSW,195,2.0,6.0,58,0.00,,,0.00,Wunderground v.1.15,2013-03-13 19:51:00,
2013-03-13 12:56:00,56.3,41.7,30.11,SSW,204,4.0,7.0,58,0.00,,,0.00,Wunderground v.1.15,2013-03-13 19:56:00,
2013-03-13 13:00:00,56.5,41.9,30.11,SSW,202,1.0,7.0,58,0.00,,,0.00,Wunderground v.1.15,2013-03-13 20:00:00,
2013-03-13 13:01:00,56.6,42.0,30.11,SSW,202,3.0,7.0,58,0.00,,,0.00,Wunderground v.1.15,2013-03-13 20:01:00,
2013-03-13 13:06:00,56.6,41.5,30.11,SSW,202,2.0,7.0,57,0.00,,,0.00,Wunderground v.1.15,2013-03-13 20:06:00,
2013-03-13 13:11:00,56.6,41.5,30.11,South,176,1.0,7.0,57,0.00,,,0.00,Wunderground v.1.15,2013-03-13 20:11:00,
2013-03-13 13:16:00,56.7,41.6,30.11,SSW,198,1.0,4.0,57,0.00,,,0.00,Wunderground v.1.15,2013-03-13 20:16:00,
2013-03-13 13:21:00,56.9,41.4,30.11,SSE,158,2.0,4.0,56,0.00,,,0.00,Wunderground v.1.15,2013-03-13 20:21:00,
2013-03-13 13:26:00,57.0,41.9,30.11,SSE,162,4.0,4.0,57,0.00,,,0.00,Wunderground v.1.15,2013-03-13 20:26:00,
2013-03-13 13:31:00,57.1,41.5,30.11,SSW,192,3.0,5.0,56,0.00,,,0.00,Wunderground v.1.15,2013-03-13 20:31:00,
2013-03-13 13:32:00,57.1,42.0,30.11,WSW,248,4.0,5.0,57,0.00,,,0.00,Wunderground v.1.15,2013-03-13 20:32:00,
2013-03-13 13:37:00,57.1,42.0,30.11,WSW,248,1.0,4.0,57,0.00,,,0.00,Wunderground v.1.15,2013-03-13 20:37:00,
2013-03-13 13:41:00,57.1,42.0,30.11,WSW,248,3.0,4.0,57,0.00,,,0.00,Wunderground v.1.15,2013-03-13 20:41:00,
2013-03-13 13:46:00,57.3,41.7,30.11,WSW,248,0.0,3.0,56,0.00,,,0.00,Wunderground v.1.15,2013-03-13 20:46:00,
2013-03-13 13:51:00,57.3,41.7,30.10,WSW,248,2.0,4.0,56,0.00,,,0.00,Wunderground v.1.15,2013-03-13 20:51:00,
2013-03-13 13:56:00,57.3,41.7,30.10,WSW,248,0.0,3.0,56,0.00,,,0.00,Wunderground v.1.15,2013-03-13 20:56:00,
2013-03-13 14:01:00,57.5,41.9,30.10,WSW,250,1.0,5.0,56,0.00,,,0.00,Wunderground v.1.15,2013-03-13 21:01:00,
2013-03-13 14:06:00,57.5,41.9,30.10,WSW,250,4.0,4.0,56,0.00,,,0.00,Wunderground v.1.15,2013-03-13 21:06:00,
2013-03-13 14:11:00,57.5,41.9,30.10,West,269,5.0,6.0,56,0.00,,,0.00,Wunderground v.1.15,2013-03-13 21:11:00,
2013-03-13 14:16:00,57.3,42.2,30.10,WNW,294,3.0,7.0,57,0.00,,,0.00,Wunderground v.1.15,2013-03-13 21:16:00,
2013-03-13 14:21:00,57.3,42.2,30.10,WNW,286,5.0,7.0,57,0.00,,,0.00,Wunderground v.1.15,2013-03-13 21:21:00,
2013-03-13 14:26:00,57.3,42.2,30.10,NW,304,3.0,5.0,57,0.00,,,0.00,Wunderground v.1.15,2013-03-13 21:26:00,
2013-03-13 14:31:00,57.4,42.3,30.10,WNW,296,3.0,5.0,57,0.00,,,0.00,Wunderground v.1.15,2013-03-13 21:31:00,
2013-03-13 14:36:00,57.3,42.6,30.10,NW,308,3.0,6.0,58,0.00,,,0.00,Wunderground v.1.15,2013-03-13 21:36:00,
2013-03-13 14:41:00,57.4,42.7,30.10,NW,308,3.0,6.0,58,0.00,,,0.00,Wunderground v.1.15,2013-03-13 21:41:00,
2013-03-13 14:46:00,57.4,42.7,30.10,NW,308,4.0,6.0,58,0.00,,,0.00,Wunderground v.1.15,2013-03-13 21:46:00,
2013-03-13 14:51:00,57.4,42.7,30.10,NW,308,4.0,6.0,58,0.00,,,0.00,Wunderground v.1.15,2013-03-13 21:51:00,
2013-03-13 14:55:00,57.4,42.7,30.10,NW,304,3.0,4.0,58,0.00,,,0.00,Wunderground v.1.15,2013-03-13 21:55:00,
2013-03-13 14:56:00,57.4,42.7,30.10,NW,304,4.0,5.0,58,0.00,,,0.00,Wunderground v.1.15,2013-03-13 21:56:00,
2013-03-13 15:01:00,57.4,42.7,30.10,NW,304,3.0,5.0,58,0.00,,,0.00,Wunderground v.1.15,2013-03-13 22:01:00,
2013-03-13 15:06:00,57.2,42.5,30.09,NW,305,4.0,4.0,58,0.00,,,0.00,Wunderground v.1.15,2013-03-13 22:06:00,
2013-03-13 15:11:00,57.1,42.9,30.10,NW,306,2.0,4.0,59,0.00,,,0.00,Wunderground v.1.15,2013-03-13 22:11:00,
2013-03-13 15:16:00,57.1,43.8,30.10,NW,306,2.0,3.0,61,0.00,,,0.00,Wunderground v.1.15,2013-03-13 22:16:00,
2013-03-13 15:21:00,57.0,42.8,30.10,NW,306,1.0,3.0,59,0.00,,,0.00,Wunderground v.1.15,2013-03-13 22:21:00,
2013-03-13 15:26:00,57.1,43.8,30.10,NW,306,3.0,3.0,61,0.00,,,0.00,Wunderground v.1.15,2013-03-13 22:26:00,
2013-03-13 15:27:00,57.1,43.8,30.10,NW,306,3.0,3.0,61,0.00,,,0.00,Wunderground v.1.15,2013-03-13 22:27:00,
2013-03-13 15:32:00,57.0,43.7,30.10,NW,306,3.0,3.0,61,0.00,,,0.00,Wunderground v.1.15,2013-03-13 22:32:00,
2013-03-13 15:35:00,57.0,44.5,30.10,NW,306,2.0,2.0,63,0.00,,,0.00,Wunderground v.1.15,2013-03-13 22:35:00,
2013-03-13 15:36:00,57.0,44.9,30.10,NW,306,2.0,3.0,64,0.00,,,0.00,Wunderground v.1.15,2013-03-13 22:36:00,
2013-03-13 15:41:00,56.9,44.8,30.09,NW,306,3.0,3.0,64,0.00,,,0.00,Wunderground v.1.15,2013-03-13 22:41:00,
2013-03-13 15:46:00,56.7,44.2,30.09,NW,306,4.0,4.0,63,0.00,,,0.00,Wunderground v.1.15,2013-03-13 22:46:00,
2013-03-13 15:51:00,56.7,45.1,30.09,NW,306,1.0,4.0,65,0.00,,,0.00,Wunderground v.1.15,2013-03-13 22:51:00,
2013-03-13 15:56:00,56.6,45.8,30.09,NW,306,4.0,4.0,67,0.00,,,0.00,Wunderground v.1.15,2013-03-13 22:56:00,
2013-03-13 16:01:00,56.5,45.7,30.09,NW,317,2.0,4.0,67,0.00,,,0.00,Wunderground v.1.15,2013-03-13 23:01:00,
2013-03-13 16:06:00,56.4,45.6,30.09,NNW,329,2.0,3.0,67,0.00,,,0.00,Wunderground v.1.15,2013-03-13 23:06:00,
2013-03-13 16:11:00,56.3,46.3,30.09,NNW,329,3.0,3.0,69,0.00,,,0.00,Wunderground v.1.15,2013-03-13 23:11:00,
2013-03-13 16:16:00,56.3,46.6,30.09,NNW,330,3.0,3.0,70,0.00,,,0.00,Wunderground v.1.15,2013-03-13 23:16:00,
2013-03-13 16:21:00,56.2,46.2,30.09,NNW,329,0.0,3.0,69,0.00,,,0.00,Wunderground v.1.15,2013-03-13 23:21:00,
2013-03-13 16:26:00,56.2,46.2,30.09,NNW,330,2.0,2.0,69,0.00,,,0.00,Wunderground v.1.15,2013-03-13 23:26:00,
2013-03-13 16:31:00,56.2,46.5,30.09,NNW,330,1.0,3.0,70,0.00,,,0.00,Wunderground v.1.15,2013-03-13 23:31:00,
2013-03-13 16:36:00,56.1,46.4,30.09,NNW,330,2.0,3.0,70,0.00,,,0.00,Wunderground v.1.15,2013-03-13 23:36:00,
2013-03-13 16:41:00,56.2,47.7,30.09,NNW,330,1.0,3.0,73,0.00,,,0.00,Wunderground v.1.15,2013-03-13 23:41:00,
2013-03-13 16:46:00,56.1,47.6,30.09,NNW,330,1.0,2.0,73,0.00,,,0.00,Wunderground v.1.15,2013-03-13 23:46:00,
2013-03-13 16:51:00,56.0,47.1,30.09,NNW,330,0.0,2.0,72,0.00,,,0.00,Wunderground v.1.15,2013-03-13 23:51:00,
2013-03-13 16:56:00,56.1,46.8,30.09,NNW,330,0.0,0.0,71,0.00,,,0.00,Wunderground v.1.15,2013-03-13 23:56:00,
2013-03-13 17:01:00,56.2,47.7,30.09,NNW,330,0.0,0.0,73,0.00,,,0.00,Wunderground v.1.15,2013-03-14 00:01:00,
2013-03-13 17:06:00,56.2,46.9,30.09,NNW,330,0.0,0.0,71,0.00,,,0.00,Wunderground v.1.15,2013-03-14 00:06:00,
2013-03-13 17:11:00,56.2,47.3,30.08,NNW,330,1.0,2.0,72,0.00,,,0.00,Wunderground v.1.15,2013-03-14 00:11:00,
2013-03-13 17:16:00,56.2,47.3,30.09,NNW,329,0.0,1.0,72,0.00,,,0.00,Wunderground v.1.15,2013-03-14 00:16:00,
2013-03-13 17:21:00,56.2,46.9,30.09,NNW,330,2.0,2.0,71,0.00,,,0.00,Wunderground v.1.15,2013-03-14 00:21:00,
2013-03-13 17:26:00,56.2,46.9,30.09,NNW,329,2.0,2.0,71,0.00,,,0.00,Wunderground v.1.15,2013-03-14 00:26:00,
2013-03-13 17:31:00,56.2,47.7,30.08,NNW,330,1.0,2.0,73,0.00,,,0.00,Wunderground v.1.15,2013-03-14 00:31:00,
2013-03-13 17:36:00,56.1,47.6,30.08,NNW,329,2.0,3.0,73,0.00,,,0.00,Wunderground v.1.15,2013-03-14 00:36:00,
2013-03-13 17:41:00,56.0,46.7,30.08,NNW,330,3.0,3.0,71,0.00,,,0.00,Wunderground v.1.15,2013-03-14 00:41:00,
2013-03-13 17:46:00,56.0,47.5,30.08,NNW,330,3.0,4.0,73,0.00,,,0.00,Wunderground v.1.15,2013-03-14 00:46:00,
2013-03-13 17:51:00,55.9,48.1,30.08,NNW,330,3.0,4.0,75,0.00,,,0.00,Wunderground v.1.15,2013-03-14 00:51:00,
2013-03-13 17:56:00,55.8,47.6,30.08,NNW,330,1.0,3.0,74,0.00,,,0.00,Wunderground v.1.15,2013-03-14 00:56:00,
2013-03-13 18:01:00,55.7,48.2,30.08,NNW,330,1.0,3.0,76,0.00,,,0.00,Wunderground v.1.15,2013-03-14 01:01:00,
2013-03-13 18:06:00,55.6,48.2,30.08,NNW,330,0.0,2.0,76,0.00,,,0.00,Wunderground v.1.15,2013-03-14 01:06:00,
2013-03-13 18:11:00,55.5,48.1,30.08,NNW,330,4.0,4.0,76,0.00,,,0.00,Wunderground v.1.15,2013-03-14 01:11:00,
2013-03-13 18:16:00,55.5,47.7,30.08,NNW,330,1.0,3.0,75,0.00,,,0.00,Wunderground v.1.15,2013-03-14 01:16:00,
2013-03-13 18:21:00,55.5,47.3,30.08,NNW,330,1.0,3.0,74,0.00,,,0.00,Wunderground v.1.15,2013-03-14 01:21:00,
2013-03-13 18:26:00,55.5,47.7,30.07,NNW,330,2.0,2.0,75,0.00,,,0.00,Wunderground v.1.15,2013-03-14 01:26:00,
2013-03-13 18:31:00,55.3,47.5,30.07,NNW,330,0.0,3.0,75,0.00,,,0.00,Wunderground v.1.15,2013-03-14 01:31:00,
2013-03-13 18:36:00,55.2,47.4,30.07,NNW,330,1.0,2.0,75,0.00,,,0.00,Wunderground v.1.15,2013-03-14 01:36:00,
2013-03-13 18:41:00,55.2,47.1,30.07,NNW,330,0.0,2.0,74,0.00,,,0.00,Wunderground v.1.15,2013-03-14 01:41:00,
2013-03-13 18:46:00,55.1,46.6,30.07,NNW,330,3.0,3.0,73,0.00,,,0.00,Wunderground v.1.15,2013-03-14 01:46:00,
2013-03-13 18:51:00,55.2,46.7,30.07,NNW,330,0.0,4.0,73,0.00,,,0.00,Wunderground v.1.15,2013-03-14 01:51:00,
2013-03-13 18:56:00,55.2,46.3,30.07,NNW,330,0.0,3.0,72,0.00,,,0.00,Wunderground v.1.15,2013-03-14 01:56:00,
2013-03-13 19:01:00,55.0,46.5,30.07,NNW,330,0.0,3.0,73,0.00,,,0.00,Wunderground v.1.15,2013-03-14 02:01:00,
2013-03-13 19:06:00,54.7,46.2,30.07,NNW,330,1.0,3.0,73,0.00,,,0.00,Wunderground v.1.15,2013-03-14 02:06:00,
2013-03-13 19:11:00,54.2,46.1,30.07,NNW,330,0.0,3.0,74,0.00,,,0.00,Wunderground v.1.15,2013-03-14 02:11:00,
2013-03-13 19:16:00,53.9,45.8,30.07,NNW,330,0.0,1.0,74,0.00,,,0.00,Wunderground v.1.15,2013-03-14 02:16:00,
2013-03-13 19:21:00,53.8,45.3,30.07,NNW,330,1.0,3.0,73,0.00,,,0.00,Wunderground v.1.15,2013-03-14 02:21:00,
2013-03-13 19:26:00,53.7,45.2,30.07,NNW,330,2.0,3.0,73,0.00,,,0.00,Wunderground v.1.15,2013-03-14 02:26:00,
2013-03-13 19:31:00,53.5,44.7,30.07,NNW,330,2.0,3.0,72,0.00,,,0.00,Wunderground v.1.15,2013-03-14 02:31:00,
2013-03-13 19:36:00,53.3,44.9,30.07,NNW,330,0.0,1.0,73,0.00,,,0.00,Wunderground v.1.15,2013-03-14 02:36:00,
2013-03-13 19:41:00,52.7,44.6,30.07,NNW,330,0.0,1.0,74,0.00,,,0.00,Wunderground v.1.15,2013-03-14 02:41:00,
2013-03-13 19:46:00,52.7,44.6,30.07,NNW,330,0.0,3.0,74,0.00,,,0.00,Wunderground v.1.15,2013-03-14 02:46:00,
2013-03-13 19:51:00,52.4,44.7,30.07,NNW,330,0.0,3.0,75,0.00,,,0.00,Wunderground v.1.15,2013-03-14 02:51:00,
2013-03-13 19:56:00,52.7,44.6,30.07,NNW,330,0.0,1.0,74,0.00,,,0.00,Wunderground v.1.15,2013-03-14 02:56:00,
2013-03-13 20:01:00,52.6,44.5,30.08,NNW,330,0.0,1.0,74,0.00,,,0.00,Wunderground v.1.15,2013-03-14 03:01:00,
2013-03-13 20:06:00,53.0,44.6,30.07,NNW,330,0.0,0.0,73,0.00,,,0.00,Wunderground v.1.15,2013-03-14 03:06:00,
2013-03-13 20:11:00,53.3,44.5,30.08,NNW,330,0.0,0.0,72,0.00,,,0.00,Wunderground v.1.15,2013-03-14 03:11:00,
2013-03-13 20:16:00,53.6,44.8,30.08,NNW,330,2.0,2.0,72,0.00,,,0.00,Wunderground v.1.15,2013-03-14 03:16:00,
2013-03-13 20:21:00,53.0,44.9,30.08,NNW,330,3.0,3.0,74,0.00,,,0.00,Wunderground v.1.15,2013-03-14 03:21:00,